Regional Weather Roundup
Issued by NWS

Home | Current Version | Previous Version | Text Only | Print | Product List | Glossary Off
Versions: 1 2 3 4 5 6 7 8 9 10 11 12 13 14 15 16 17 18 19 20 21 22 23 24 25 26 27 28 29 30 31 32 33 34 35 36 37 38 39 40 41 42 43 44 45 46 47 48 49 50

000
ASUS43 KIND 170600
RWRIN

WEATHER ROUNDUP FOR INDIANA
NATIONAL WEATHER SERVICE INDIANAPOLIS IN
200 AM EDT TUE OCT 17 2017

NOTE: "FAIR" INDICATES FEW OR NO CLOUDS BELOW 12,000 FEET WITH NO
SIGNIFICANT WEATHER AND/OR OBSTRUCTIONS TO VISIBILITY.

* - STATION DOES NOT REPORT WEATHER SUCH AS PRECIPITATION OR FOG.

+ - STATION NOT QUALITY CONTROLLED BY THE NATIONAL WEATHER SERVICE.
    USE DATA WITH CAUTION...ESPECIALLY DEWPOINT AND RELATIVE
    HUMIDITY OBSERVATIONS.

INZ001>003-010>013-019-020-170700-
NORTHWEST INDIANA

CITY           SKY/WX    TMP DP  RH WIND       PRES   REMARKS
KNOX *+        CLEAR     43  37  81 S5        30.24S
MICHIGAN CITY+ CLEAR     45  39  81 S3        30.24S
MONTICELLO +   CLEAR     45  38  76 S6        30.26S
6HR MIN TEMP:  44; 6HR MAX TEMP:  55;

RENSSELAER +   CLEAR     43  36  75 S6        30.25S

$$

LMZ046-743>745-170700-
SOUTHERN LAKE MICHIGAN

STATION/POSITION TIME  TEMP    WIND        PRES    WAVE
                       AIR SEA DIR/SP/G            HT
                 (UTC) (F)     (DEG/KT/KT) (MB)    (FT)
BURNS HARBOR     0540   52     200/ 11/ 15 1023.7S
5NW MICH CITY    0540   55 57  210/ 12/ 14   N/A     2

$$

INZ004-005-014>016-021>024-170700-
NORTH CENTRAL INDIANA

CITY           SKY/WX    TMP DP  RH WIND       PRES   REMARKS
GOSHEN         CLEAR     44  37  76 SW6       30.24S
6HR MIN TEMP:  43; 6HR MAX TEMP:  49;

PERU/GRISSOM   CLEAR     44  38  79 SW8       30.27R
6HR MIN TEMP:  44; 6HR MAX TEMP:  50;

SOUTH BEND     CLEAR     44  39  82 SW7       30.24R
6HR MIN TEMP:  44; 6HR MAX TEMP:  49;

WARSAW +       CLEAR     46  37  71 CALM      30.25F

$$

INZ006>009-017-018-025>027-170700-
NORTHEAST INDIANA

CITY           SKY/WX    TMP DP  RH WIND       PRES   REMARKS
AUBURN +       CLEAR     45  37  76 S3        30.26S
FORT WAYNE     CLEAR     43  37  79 SW7       30.28R
6HR MIN TEMP:  42; 6HR MAX TEMP:  49;

KENDALLVILLE + CLEAR     46  38  72 SW8       30.25S

$$

INZ028-029-035-036-043>045-051>053-170700-
WEST CENTRAL INDIANA

CITY           SKY/WX    TMP DP  RH WIND       PRES   REMARKS
GREENCASTLE +  CLEAR     41  37  87 CALM      30.30S
LAFAYETTE      CLEAR     43  39  86 W3        30.28S
6HR MIN TEMP:  43; 6HR MAX TEMP:  50;

TERRE HAUTE    CLEAR     41  38  89 CALM      30.30S
6HR MIN TEMP:  40; 6HR MAX TEMP:  52;


$$

INZ030>032-037>040-046>048-054>057-064-065-170700-
CENTRAL INDIANA

CITY           SKY/WX    TMP DP  RH WIND       PRES   REMARKS
GREENWOOD *+   CLEAR     47  41  79 SW3       30.30F
6HR MIN TEMP:  44; 6HR MAX TEMP:  51;

INDIANAPOLIS   CLEAR     45  38  76 SW3       30.30S
6HR MIN TEMP:  44; 6HR MAX TEMP:  54;

-EAGLE CREEK   CLEAR     45  38  76 CALM      30.29S
6HR MIN TEMP:  45; 6HR MAX TEMP:  55;

KOKOMO +       CLEAR     47  38  71 S7        30.28S
6HR MIN TEMP:  44; 6HR MAX TEMP:  50;

MT COMFORT *+  CLEAR     43  41  93 S5        30.30R
SHELBYVILLE    CLEAR     41  37  86 CALM      30.30S
6HR MIN TEMP:  41; 6HR MAX TEMP:  49;


$$

INZ033-034-041-042-049-050-058-059-170700-
EAST CENTRAL INDIANA

CITY           SKY/WX    TMP DP  RH WIND       PRES   REMARKS
MUNCIE         CLEAR     47  37  68 S5        30.29R
6HR MIN TEMP:  44; 6HR MAX TEMP:  49;

RICHMOND +     CLEAR     37  36  93 SW5       30.30F

$$

INZ060-061-067>069-081>083-085>088-170700-
SOUTHWEST INDIANA

CITY           SKY/WX    TMP DP  RH WIND       PRES   REMARKS
EVANSVILLE     CLEAR     42  40  92 CALM      30.33F
6HR MIN TEMP:  42; 6HR MAX TEMP:  53;

HUNTINGBURG +  CLEAR     41  40  96 CALM      30.33S
6HR MIN TEMP:  41; 6HR MAX TEMP:  53;


$$

INZ062-063-066-070>080-084-089>092-170700-
SOUTH CENTRAL AND SOUTHEAST INDIANA

CITY           SKY/WX    TMP DP  RH WIND       PRES   REMARKS
BLOOMINGTON    CLEAR     40  37  89 CALM      30.31S
6HR MIN TEMP:  40; 6HR MAX TEMP:  49;

MADISON *+     CLEAR     41  39  93 CALM      30.34S
SEYMOUR +      CLEAR     39  37  93 CALM      30.32F

$$





USA.gov is the U.S. government's official web portal to all federal, state and local government web resources and services.